TimeAKST,TemperatureF,Dew PointF,Humidity,Sea Level PressureIn,VisibilityMPH,Wind Direction,Wind SpeedMPH,Gust SpeedMPH,PrecipitationIn,Events,Conditions,WindDirDegrees,DateUTC
12:16 AM,26.6,21.2,80,29.30,5.0,East,15.0,19.6,N/A,,Mostly Cloudy,100,2012-12-03 09:16:00
12:36 AM,28.4,23.0,80,29.31,10.0,East,12.7,20.7,N/A,,Mostly Cloudy,90,2012-12-03 09:36:00
12:56 AM,26.6,21.2,80,29.31,10.0,ESE,15.0,21.9,N/A,,Scattered Clouds,110,2012-12-03 09:56:00
1:16 AM,26.6,21.2,80,29.31,10.0,East,13.8,19.6,N/A,,Mostly Cloudy,80,2012-12-03 10:16:00
1:36 AM,26.6,21.2,80,29.32,10.0,East,11.5,-,N/A,,Mostly Cloudy,90,2012-12-03 10:36:00
1:56 AM,26.6,21.2,80,29.33,10.0,East,9.2,-,N/A,,Mostly Cloudy,80,2012-12-03 10:56:00
2:16 AM,28.4,21.2,74,29.33,10.0,NE,6.9,-,N/A,,Overcast,40,2012-12-03 11:16:00
2:36 AM,28.4,19.4,69,29.34,10.0,East,5.8,-,N/A,,Overcast,80,2012-12-03 11:36:00
2:56 AM,26.6,19.4,74,29.34,10.0,NE,9.2,-,N/A,,Overcast,50,2012-12-03 11:56:00
3:16 AM,28.4,21.2,74,29.34,10.0,East,17.3,-,N/A,,Mostly Cloudy,100,2012-12-03 12:16:00
3:36 AM,28.4,21.2,74,29.33,10.0,ESE,18.4,-,N/A,,Mostly Cloudy,110,2012-12-03 12:36:00
3:56 AM,28.4,21.2,74,29.34,10.0,East,16.1,21.9,N/A,,Overcast,100,2012-12-03 12:56:00
4:16 AM,28.4,21.2,74,29.34,10.0,East,11.5,18.4,N/A,,Overcast,80,2012-12-03 13:16:00
4:36 AM,28.4,24.8,86,29.34,10.0,East,15.0,18.4,N/A,,Overcast,90,2012-12-03 13:36:00
4:56 AM,30.2,24.8,80,29.33,10.0,East,20.7,26.5,N/A,,Overcast,90,2012-12-03 13:56:00
5:16 AM,30.2,24.8,80,29.34,10.0,East,18.4,25.3,N/A,,Overcast,100,2012-12-03 14:16:00
5:36 AM,30.2,24.8,80,29.35,10.0,East,17.3,24.2,N/A,,Overcast,90,2012-12-03 14:36:00
5:56 AM,30.2,24.8,80,29.36,10.0,East,16.1,25.3,N/A,,Overcast,90,2012-12-03 14:56:00
6:16 AM,30.2,23.0,75,29.37,10.0,East,12.7,20.7,N/A,,Overcast,100,2012-12-03 15:16:00
6:36 AM,30.2,23.0,75,29.39,10.0,East,8.1,-,N/A,,Overcast,80,2012-12-03 15:36:00
6:56 AM,28.4,21.2,74,29.39,7.0,East,10.4,-,N/A,,Overcast,100,2012-12-03 15:56:00
7:16 AM,28.4,23.0,80,29.39,7.0,ENE,10.4,-,N/A,,Overcast,70,2012-12-03 16:16:00
7:36 AM,28.4,23.0,80,29.40,7.0,East,11.5,-,N/A,,Overcast,90,2012-12-03 16:36:00
7:56 AM,28.4,23.0,80,29.41,7.0,East,11.5,-,N/A,,Overcast,100,2012-12-03 16:56:00
8:16 AM,28.4,21.2,74,29.42,7.0,East,8.1,-,N/A,,Overcast,90,2012-12-03 17:16:00
8:36 AM,28.4,24.8,86,29.42,7.0,ENE,10.4,-,N/A,,Overcast,70,2012-12-03 17:36:00
8:56 AM,28.4,23.0,80,29.44,7.0,ENE,5.8,-,N/A,,Overcast,60,2012-12-03 17:56:00
9:16 AM,28.4,23.0,80,29.44,7.0,East,6.9,-,N/A,,Overcast,90,2012-12-03 18:16:00
9:36 AM,28.4,23.0,80,29.45,7.0,East,8.1,-,N/A,,Overcast,90,2012-12-03 18:36:00
9:56 AM,28.4,24.8,86,29.46,3.0,East,9.2,-,N/A,,Overcast,90,2012-12-03 18:56:00
10:16 AM,28.4,23.0,80,29.47,3.0,East,5.8,-,N/A,,Overcast,90,2012-12-03 19:16:00
10:36 AM,28.4,23.0,80,29.47,3.0,East,12.7,16.1,N/A,,Overcast,90,2012-12-03 19:36:00
10:56 AM,28.4,23.0,80,29.48,1.5,ENE,11.5,17.3,N/A,,Overcast,70,2012-12-03 19:56:00
11:16 AM,28.4,23.0,80,29.49,1.5,East,9.2,-,N/A,,Overcast,90,2012-12-03 20:16:00
11:36 AM,28.4,24.8,86,29.49,7.0,East,11.5,-,N/A,,Overcast,90,2012-12-03 20:36:00
11:56 AM,28.4,23.0,80,29.49,10.0,East,11.5,-,N/A,,Overcast,90,2012-12-03 20:56:00
12:16 PM,28.4,21.2,74,29.49,10.0,East,10.4,-,N/A,,Overcast,90,2012-12-03 21:16:00
12:36 PM,30.2,23.0,75,29.49,10.0,ENE,5.8,-,N/A,,Overcast,70,2012-12-03 21:36:00
12:56 PM,28.4,24.8,86,29.49,7.0,East,9.2,-,N/A,,Overcast,100,2012-12-03 21:56:00
1:16 PM,28.4,24.8,86,29.48,7.0,East,10.4,-,N/A,,Overcast,100,2012-12-03 22:16:00
1:36 PM,28.4,24.8,86,29.48,7.0,ESE,13.8,-,N/A,,Overcast,110,2012-12-03 22:36:00
1:56 PM,28.4,24.8,86,29.48,2.0,North,5.8,-,N/A,,Overcast,10,2012-12-03 22:56:00
2:16 PM,28.4,24.8,86,29.48,2.0,ESE,8.1,-,N/A,,Overcast,110,2012-12-03 23:16:00
2:36 PM,28.4,24.8,86,29.47,2.0,East,13.8,17.3,N/A,,Overcast,100,2012-12-03 23:36:00
2:56 PM,28.4,24.8,86,29.47,3.0,East,9.2,-,N/A,,Overcast,90,2012-12-03 23:56:00
3:16 PM,30.2,24.8,80,29.46,2.0,East,8.1,-,N/A,,Overcast,100,2012-12-04 00:16:00
3:36 PM,30.2,24.8,80,29.45,2.0,East,8.1,-,N/A,,Overcast,80,2012-12-04 00:36:00
3:56 PM,28.4,24.8,86,29.44,10.0,East,10.4,-,N/A,,Overcast,100,2012-12-04 00:56:00
4:16 PM,28.4,24.8,86,29.43,10.0,ESE,9.2,-,N/A,,Overcast,120,2012-12-04 01:16:00
4:36 PM,30.2,24.8,80,29.42,10.0,East,6.9,-,N/A,,Overcast,100,2012-12-04 01:36:00
4:56 PM,30.2,23.0,75,29.41,10.0,ESE,8.1,-,N/A,,Overcast,110,2012-12-04 01:56:00
5:16 PM,28.4,21.2,74,29.39,10.0,SE,10.4,-,N/A,,Overcast,130,2012-12-04 02:16:00
5:36 PM,28.4,23.0,80,29.37,10.0,ESE,9.2,-,N/A,,Overcast,110,2012-12-04 02:36:00
5:56 PM,28.4,21.2,74,29.37,10.0,SSE,4.6,-,N/A,,Overcast,160,2012-12-04 02:56:00
6:16 PM,30.2,24.8,80,29.36,10.0,NNE,3.5,-,N/A,,Overcast,30,2012-12-04 03:16:00
6:36 PM,30.2,24.8,80,29.35,10.0,East,12.7,16.1,N/A,,Overcast,100,2012-12-04 03:36:00
6:56 PM,32.0,24.8,75,29.34,2.0,East,15.0,-,N/A,,Overcast,90,2012-12-04 03:56:00
7:16 PM,30.2,24.8,80,29.34,2.0,East,12.7,-,N/A,,Overcast,80,2012-12-04 04:16:00
7:36 PM,32.0,26.6,80,29.33,2.0,East,16.1,23.0,N/A,,Overcast,100,2012-12-04 04:36:00
7:56 PM,32.0,26.6,80,29.32,7.0,East,13.8,18.4,N/A,,Overcast,80,2012-12-04 04:56:00
8:16 PM,32.0,26.6,80,29.30,7.0,East,12.7,-,N/A,,Overcast,80,2012-12-04 05:16:00
8:36 PM,32.0,26.6,80,29.29,7.0,East,13.8,19.6,N/A,,Overcast,80,2012-12-04 05:36:00
8:56 PM,33.8,24.8,70,29.29,7.0,East,13.8,19.6,N/A,,Overcast,90,2012-12-04 05:56:00
9:16 PM,30.2,21.2,69,29.30,7.0,North,3.5,-,N/A,,Overcast,350,2012-12-04 06:16:00
9:36 PM,30.2,24.8,80,29.28,3.0,East,12.7,16.1,N/A,,Overcast,80,2012-12-04 06:36:00
9:56 PM,32.0,26.6,80,29.27,3.0,East,13.8,19.6,N/A,,Overcast,90,2012-12-04 06:56:00
10:16 PM,33.8,26.6,75,29.26,3.0,East,6.9,-,N/A,,Overcast,100,2012-12-04 07:16:00
10:36 PM,32.0,24.8,75,29.26,3.0,East,8.1,-,N/A,,Overcast,80,2012-12-04 07:36:00
10:56 PM,28.4,21.2,74,29.26,3.0,Calm,Calm,-,N/A,,Overcast,0,2012-12-04 07:56:00
11:16 PM,28.4,21.2,74,29.26,10.0,North,3.5,-,N/A,,Overcast,350,2012-12-04 08:16:00
11:36 PM,26.6,19.4,74,29.26,10.0,NW,3.5,-,N/A,,Overcast,310,2012-12-04 08:36:00
11:56 PM,26.6,19.4,74,29.24,10.0,NNW,8.1,-,N/A,,Overcast,330,2012-12-04 08:56:00